Location: Gaast
(52.9002°N, 5.8891°E)
Time: 07:03:32
(UTC+00:00)

SL-19 R/B - Pass Details

Date: 18 November 2025
Orbit: 795 x 1008 km, 99.6° (Epoch: 12 December)

Event Time Altitude Azimuth Distance (km) Brightness Sun altitude
Rises 18:12:03 0° 171° (S) 3,300 7.2 -22.9°
Reaches altitude 10° 18:14:23 10° 174° (S) 2,366 6.5 -23.2°
Maximum altitude 18:19:32 64° 256° (WSW) 887 4.5 -24.0°
Drops below altitude 10° 18:24:46 10° 338° (NNW) 2,401 6.8 -24.8°
Sets 18:27:09 0° 342° (NNW) 3,354 7.6 -25.2°
